Location: Brantley
(31.5822°N, 86.2569°W)
Time: 07:03:55
(UTC+00:00)

Courier 1B Rocket - Pass Details

Date: 25 February 2026
Orbit: 920 x 1201 km, 28.2° (Epoch: 9 March)

Event Time Altitude Azimuth Distance (km) Brightness Sun altitude
Rises 02:22:46 0° 272° (W) 3,547 8.9 -35.4°
Reaches altitude 10° 02:25:29 10° 266° (W) 2,604 7.9 -36.0°
Enters shadow 02:29:13 32° 238° (WSW) 1,542 6.3 -36.7°
Maximum altitude 02:31:16 41° 198° (SSW) 1,325 - -37.2°
Drops below altitude 10° 02:37:14 10° 129° (SE) 2,684 - -38.4°
Sets 02:40:05 0° 123° (ESE) 3,666 - -39.0°
